Location: *
(2.5500°S, 65.9667°W)
Time: 05:49:19
(UTC+00:00)

Explorer 7 - Pass Details

Date: 25 April 2024
Orbit: 467 x 625 km, 50.3° (Epoch: 26 May)

Event Time Altitude Azimuth Distance (km) Brightness Sun altitude
Rises 10:51:03 0° 234° (SW) 2,655 9.7 6.5°
Reaches altitude 10° 10:53:25 10° 245° (WSW) 1,793 8.8 7.1°
Maximum altitude 10:57:01 30° 307° (NW) 1,007 7.9 8.0°
Drops below altitude 10° 11:00:48 10° 9° (N) 1,875 9.9 8.9°
Sets 11:03:19 0° 20° (NNE) 2,800 10.9 9.5°
